Overview Statistics Trail Chart Weather Telemetry Raw packets
 

This is the latest recevied weather packets stored in our database for station/object WA6OOO. If no packets are shown the sender has not sent any weather packets the latest 10 day(s).

<< 3 4 5 6 7 8 9 >>
Time Temp. Humidity Pressure Rain* Wind** Luminosity Snow
1788648425 27.78° C 38% 1016.1 hPa 0 mm - 451 W/m² -
1788648120 27.78° C 39% 1016.2 hPa 0 mm - 465 W/m² -
1788647816 27.78° C 42% 1016.3 hPa 0 mm - 481 W/m² -
1788647513 27.78° C 41% 1016.3 hPa 0 mm - 495 W/m² -
1788647208 27.78° C 41% 1016.4 hPa 0 mm - 507 W/m² -
1788646903 27.78° C 42% 1016.3 hPa 0 mm - 522 W/m² -
1788646598 27.78° C 44% 1016.3 hPa 0 mm - 534 W/m² -
1788646295 27.78° C 44% 1016.3 hPa 0 mm - 545 W/m² -
1788645990 27.78° C 44% 1016.4 hPa 0 mm - 557 W/m² -
1788645686 27.78° C 43% 1016.2 hPa 0 mm - 566 W/m² -
1788645386 27.22° C 45% 1016.4 hPa 0 mm - 576 W/m² -
1788645081 27.22° C 47% 1016.5 hPa 0 mm - 584 W/m² -
1788644778 27.22° C 49% 1016.3 hPa 0 mm - 593 W/m² -
1788644478 27.22° C 48% 1016.6 hPa 0 mm - 600 W/m² -
1788644173 27.22° C 49% 1016.6 hPa 0 mm - 611 W/m² -
1788643869 27.78° C 47% 1016.5 hPa 0 mm - 619 W/m² -
1788643569 27.78° C 49% 1016.6 hPa 0 mm - 628 W/m² -
1788643268 27.78° C 47% 1016.6 hPa 0 mm - 637 W/m² -
1788642963 27.22° C 49% 1016.5 hPa 0 mm - 645 W/m² -
1788642659 27.22° C 53% 1016.5 hPa 0 mm - 653 W/m² -
1788642355 26.67° C 56% 1016.7 hPa 0 mm - 660 W/m² -
1788642049 27.22° C 54% 1016.9 hPa 0 mm - 668 W/m² -
1788641749 26.67° C 53% 1016.9 hPa 0 mm - 675 W/m² -
1788641448 27.22° C 54% 1016.9 hPa 0 mm - 680 W/m² -
1788641143 27.22° C 54% 1017 hPa 0 mm - 685 W/m² -

* Rain latest hour (hover to see other rain measurements)
** Current wind speed in m/s (hover to see current wind gust speed)